Back to catalog

KUIPER-00015

AliveCommunicationsLEO
NORAD 63731·PAYLOAD·🇺🇸 United States

Launched Apr 28, 2025 from Cape Canaveral Space Force Station

Loading…

Next Passes (next 24 hours)

TLE

FreshSource: CelesTrak SupGP

Epoch: Sep 15, 2026, 01:33 UTC

1 63731C 25088H   26258.06498843  .00001540  00000+0  20158-3 0  2584
2 63731  51.9000   0.6942 0000318 112.9413 287.9369 14.79930932    13

Track KUIPER-00015 in real time with AllMySat

Download on the App Store